Weather History for CWDC - January, 2013

Change the Weather History Date:

Thursday, January 17, 2013

  Actual Average Record
Temperature  
Mean Temperature -30 °F -  
Max Temperature -19 °F - - ()
Min Temperature -42 °F - - ()
Degree Days  
Heating Degree Days 96    
Moisture  
Dew Point -37 °F    
Average Humidity 65    
Maximum Humidity 74    
Minimum Humidity 45    
Precipitation  
Precipitation 0.19 in - - ()
Sea Level Pressure  
Sea Level Pressure 30.32 in    
Wind  
Wind Speed 3 mph ()    
Max Wind Speed 8 mph    
Max Gust Speed -    
T = Trace of Precipitation, MM = Missing Value Source: Averaged Metar Reports

Daily Weather History Graph

Daily Weather History Graph

Search for Another Location

Airport or City:

Trip Planner

Search our weather history database for the weather conditions in past years. The results will help you decide how hot, cold, wet, or windy it might be!

Date:

Astronomy

Jan. 17, 2013 Rise Set
Actual Time 9:54 AM CST 4:54 PM CST
Civil Twilight 9:03 AM CST 5:45 PM CST
Nautical Twilight 8:10 AM CST 6:38 PM CST
Astronomical Twilight 7:21 AM CST 7:27 PM CST
Moon 11:11 AM CST (1/17) 12:32 AM CST (1/17)
Length of Visible Light 8h 41m
Length of Day
7h 00m
Waxing Crescent, 38% of the Moon is Illuminated
Jan 17
Waxing Crescent
Jan 18
First Quarter
Jan 26
Full
Feb 3
Last Quarter
Feb 10
New

Hourly Weather History & Observations

Time (CST) Temp. Windchill Dew Point Humidity Pressure Visibility Wind Dir Wind Speed Gust Speed Precip Events Conditions
12:00 AM -35 °F - -42 °F 53% 30.42 in - Calm Calm - -  
12:00 AM -27.6 °F -39.4 °F -33.7 °F 73% 30.13 in - East 3.5 mph - N/A   Unknown
1:00 AM -35.0 °F - -42.0 °F 68% 30.41 in - ENE 2.3 mph - N/A   Unknown
2:00 AM -34.4 °F - -41.3 °F 69% 30.43 in - WSW 2.3 mph - N/A   Unknown
3:00 AM -38 °F - -45 °F 50% 30.44 in - South 1.2 mph - -  
3:00 AM -37.8 °F - -45.0 °F 67% 30.44 in - South 1.2 mph - N/A   Unknown
4:00 AM -39.3 °F - -46.5 °F 67% 30.45 in - East 1.2 mph - N/A   Unknown
5:00 AM -40.0 °F - -47.4 °F 66% 30.44 in - NE 2.3 mph - N/A   Unknown
6:00 AM -40 °F - -48 °F 46% 30.43 in - ENE 4.6 mph - -  
7:00 AM -41.8 °F -55.6 °F -49.4 °F 65% 30.42 in - ENE 3.5 mph - N/A   Unknown
8:00 AM -41.1 °F - -48.6 °F 65% 30.41 in - ENE 2.3 mph - N/A   Unknown
9:00 AM -40 °F - -48 °F 45% 30.41 in - East 5.8 mph - -  
9:00 AM -40.2 °F -59.3 °F -47.7 °F 66% 30.41 in - East 5.8 mph - N/A   Unknown
10:00 AM -40.2 °F -53.8 °F -47.9 °F 65% 30.41 in - ENE 3.5 mph - N/A   Unknown
11:00 AM -36.6 °F -49.6 °F -43.8 °F 67% 30.40 in - ENE 3.5 mph - N/A   Unknown
12:00 PM -32 °F - -39 °F 53% 30.36 in - ENE 4.6 mph - -  
12:00 PM -31.9 °F -47.1 °F -38.7 °F 69% 30.36 in - ENE 4.6 mph - N/A   Unknown
1:00 PM -27.0 °F - -33.5 °F 71% 30.33 in - Calm Calm - N/A   Unknown
2:00 PM -22.9 °F -36.6 °F -29.2 °F 72% 30.29 in - East 4.6 mph - N/A   Unknown
3:00 PM -21 °F - -28 °F 54% 30.26 in - ENE 6.9 mph - -  
3:00 PM -21.3 °F -38.6 °F -28.1 °F 71% 30.26 in - ENE 6.9 mph - N/A   Unknown
4:00 PM -19.8 °F -35.1 °F -26.9 °F 70% 30.25 in - ENE 5.8 mph - N/A   Unknown
5:00 PM -21.5 °F -34.9 °F -28.3 °F 71% 30.25 in - ENE 4.6 mph - N/A   Unknown
6:00 PM -21 °F - -28 °F 53% 30.23 in - ENE 5.8 mph - -  
6:00 PM -21.5 °F -37.0 °F -28.3 °F 71% 30.23 in - ENE 5.8 mph - N/A   Unknown
7:00 PM -22.2 °F -37.9 °F -28.7 °F 72% 30.21 in - ENE 5.8 mph - N/A   Unknown
8:00 PM -23.1 °F -38.9 °F -29.0 °F 74% 30.21 in - ENE 5.8 mph - N/A   Unknown
9:00 PM -26 °F - -32 °F 59% 30.20 in - ENE 3.5 mph - -  
9:00 PM -25.6 °F -37.1 °F -31.9 °F 72% 30.20 in - ENE 3.5 mph - N/A   Unknown
10:00 PM -21.6 °F -40.5 °F -28.3 °F 71% 30.16 in - ENE 8.1 mph - N/A   Unknown
11:00 PM -21.5 °F -40.3 °F -28.1 °F 71% 30.14 in - ENE 8.1 mph - N/A   Unknown